Погода в Дукстасе

Поиск расширенной информации на нашем сайте:

Полезная информация:

Новости сайта



02.01.2020
Опубликован Долгосрочный прогноз погоды по городам России и ближнего зарубежья на январь 2020 года.
Карты: Прогноз на январь и февраль 2020 года, Сравнение прогнозируемой аномалии приземной температуры воздуха на январь 2020 года по разным моделям.




Погода в Дукстасе - сегодня

Время (UTC), дата Ветер
(°,м/с) 
Видим.   Явления Облачность Т
(°С)
Тd
(°С)
f(%) Тe
(°С)
Pmin
(гПа)
dP
(гПа)
Po
(мм)
O2
(г/м3)
Тmin Tmax R s Состояние
почвы
12 26.02.20 170 (Ю) 3-5{07}  20000 м    8/8 300 м 
+4.5 +1.7 82 +3  991.4  729  289           
15 26.02.20 190 (Ю) 2-4{07}  20000 м    6/0 2000 м 
+5.4 +0.5 71 +5  991.5  -0.1  729  288           
18 26.02.20 150 (ЮВ) 1-2{07}  19000 м  в посл. час дождь  9/9 1000 м 
+3.5 +0.5 81 +4  992.5  0.9  730  290    +6.9  0.0     
21 26.02.20 260 (З) 1-3{04}  9000 м  ливневой дождь  10/10 300 м 
+2.2 +1.1 92 +3  992.8  0.2  730  291      0.6     
00 27.02.20 150 (ЮВ) 2-3{03}  5000 м  слаб. дождь со снегом  10/10 300 м 
+0.9 +0.2 95 992.5  -0.4  730  293         
03 27.02.20 тихо () -1{03}  4800 м  в посл. час снег  9/9 100 м 
+0.2 -0.3 96 992.3  -0.2  729  294         
06 27.02.20 260 (З) 2-3{03}  13000 м    9/9 1500 м 
+0.7 +0 95 993  0.7  730  293  +0.1       
09 27.02.20 250 (З) 4-7{07}  20000 м    9/9 600 м 
+1.6 -0.7 85 -1  994  731  293           
12 27.02.20 240 (ЮЗ) 4-7{09}  20000 м    9/9 300 м 
+2.1 -1 80 994  0.1  731  292           
15 27.02.20 220 (ЮЗ) 5-8{09}  5000 м  слаб. ливневой снег  10/10 300 м 
+1 -1.2 85 -2  994.4  0.3  731  294      0.2     
18 27.02.20 230 (ЮЗ) 3-6{09}  20000 м  в посл. час снег  9/9 600 м 
+0 -1.3 91 -2  994.7  0.2  731  295    +3     
21 27.02.20 230 (ЮЗ) 5-8{08}  20000 м    9/9 1000 м 
-0.3 -1.9 89 -3  995  0.3  731  295         
00 28.02.20 220 (ЮЗ) 5-8{09}  5000 м  слаб. снег  10/10 300 м 
-0.8 -1.8 93 -4  995.7  0.6  732  296      0.0     
03 28.02.20 230 (ЮЗ) 5-7{09}  2900 м  слаб. снег  10/10 200 м 
-1.2 -1.9 95 -4  995.7  732  296         
06 28.02.20 240 (ЮЗ) 4-7{08}  4400 м  слаб. снег  10/10 200 м 
-0.5 -1.2 95 -3  997.3  1.6  733  296  -1.3       
09 28.02.20 260 (З) 4-7{08}  20000 м  слаб. ливневой дождь  10/10 600 м 
+0 -2.1 86 -2  999.9  2.6  735  296      0.8     
12 28.02.20 280 (З) 3-6{08}  2100 м  слаб. снег  10/10 300 м 
-0.3 -1.8 90 -2  1002.3  2.3  737  297      0.3     
15 28.02.20 270 (З) 3-6{07}  20000 м    9/9 1000 м 
+0 -2.7 82 -2  1004.2  1.9  738  298      0.2     
18 28.02.20 220 (ЮЗ) 2-2{08}  20000 м    1/0 
-2.7 -4.6 87 -4  1006.3  1.9  740  301    +0.3  0.3     
21 28.02.20 230 (ЮЗ) 3-5{05}  20000 м    1/0 
-3 -3.8 94 -5  1006.9  0.5  740  302           
00 29.02.20 230 (ЮЗ) 3-4{08}  20000 м  слаб. снег  9/9 200 м 
-0.9 -1.8 94 -3  1007.1  0.4  740  299      0.0     
03 29.02.20 240 (ЮЗ) 2-4{06}  16000 м  слаб. ливневой снег  10/10 600 м 
-1.2 -1.9 95 -2  1006.9  -0.2  740  300      0.0     
06 29.02.20 280 (З) 1-3{05}  19000 м    10/10 200 м 
-1 -1.8 94 1007.1  0.2  740  300  -3.2         
09 29.02.20 260 (З) 2-3{06}  20000 м    5/0 
+0.9 -3 75 1007.7  0.7  741  298           
12 29.02.20 220 (ЮЗ) 3-5{07}  20000 м    10/10 300 м 
+0.8 -2.2 80 -1  1007.8  0.1  741  298           
Время (UTC), дата Ветер
(°,м/с) 
Видим.   Явления Облачность Т
(°С)
Тd
(°С)
f(%) Тe
(°С)
Pmin
(гПа)
dP
(гПа)
Po
(мм)
O2
(г/м3)
Тmin Tmax R s Состояние
почвы

Для получения пояснительной информации подведите курсор к названию столбца.

ПОГОДА в Дукстасе - архив

Всё, что Вы хотите узнать о погоде в Дукстасе - удобно и подробно!

Выберите нужную дату (начиная с 1 января 2019* года) и нажмите кнопку "Найти".
Будут отображены архивные сводки погоды по пункту Дукстас, начиная с указанной даты.


Отображать данные в формате CSV (для использования в таблицах Excel)


Внимание! Наш архив погоды предназначен исключительно для личного некоммерческого использования в познавательных целях. Если Вам необходимы официальные справки о состоянии погоды (для производственных, юридических, коммерческих и т.п. целей), обращайтесь в органы Росгидромета.

*Примечание: данная дата относится к архиву по метеостанциям СССР (Россия, СНГ, Балтия).
Архив по метеостанциям Зарубежной Европы и Азии (кроме Китая) хранится 10 дней, по другим регионам земного шара (Китай, Африка, Америка, Австралия, Океания) - 1 день.

Дукстас - район местоположения метеостанции


Название, широта, долгота, высота метеостанции:
Дукстас 55.5°ш. 26.3°д. 168 м над ур. моря [Литва]

Дополнительная информация

В oтличие oт бoльшинства пoгoдных сайтoв мы публикуем пoдрoбную метеoинфoрмацию в детальнoм прoфессиoнальнoм фoрмате.

Характеристики температуры и влажнoсти вoздуха измеряются на высoте 2 м в тени вдали oт зданий и деревьев.
Скoрoсть ветра измеряется на высoте 10 м (на урoвне рoста челoвека скoрoсть ветра ниже в 1.5-2 раза). Если метеoстанция нахoдится в гoрoде или в лесу, тo скoрoсть ветра занижена на 2-4 м/с пo сравнению с oткрытым местoм. Скoрoсть ветра над акватoриями крупных рек и oзёр, а также на вершинах хoлмoв на 2-5 м/с выше, чем в oбычных услoвиях.
Атмoсфернoе давление в разных тoчках местнoсти мoжет значительнo oтличаться oт давления на метеoстанции, в зависимoсти oт услoвий рельефа (при пoдъёме на 10 м давление пoнижается примернo на 1 мм рт.ст.).